Regional Weather Roundup
Issued by NWS Mobile, AL

Home | Current Version | Previous Version | Text Only | Print | Product List | Glossary On
Versions: 1 2 3 4 5 6 7 8 9 10 11 12 13 14 15 16 17 18 19 20 21 22 23 24 25 26 27 28 29 30 31 32 33 34 35 36 37 38 39 40 41 42 43 44 45 46 47 48 49 50
000
ASUS44 KMOB 232112
RWRMOB
REGIONAL WEATHER ROUNDUP
NATIONAL WEATHER SERVICE MOBILE AL
300 PM CST THU FEB 23 2017

NOTE: "FAIR" INDICATES FEW OR NO CLOUDS BELOW 12,000 FEET WITH NO
      SIGNIFICANT WEATHER AND/OR OBSTRUCTIONS TO VISIBILITY.

  * THESE STATIONS ARE PART OF THE UNIVERSITY OF SOUTH ALABAMA
    MESONET AND ARE NOT UNDER NWS OR FAA QUALITY CONTROL.

ALZ061>064-232200-
COASTAL ALABAMA

CITY           SKY/WX    TMP DP  RH WIND       PRES   REMARKS
MOBILE REG APT MOSUNNY   77  57  50 SE6       29.77F
BROOKLEY FIELD SUNNY     75  57  53 VRB7      29.79S
USA CAMPUS*    NOT AVBL
DOG RIVER*     NOT AVBL


CITY           SKY/WX    TMP DP  RH WIND       PRES   REMARKS
GULF SHORES    SUNNY     74  61  63 S8        29.77F

$$

ALZ051>060-232200-
INTERIOR SOUTHWEST AND SOUTH CENTRAL ALABAMA

CITY           SKY/WX    TMP DP  RH WIND       PRES   REMARKS
GREENVILLE     MOSUNNY   75  56  51 E7        29.76F
EVERGREEN      MOSUNNY   77  56  48 VRB3      29.76F
ATMORE*        NOT AVBL
ANDALUSIA/OPP  MOSUNNY   80  59  48 E7        29.76F
ANDALUSIA*     NOT AVBL
FLORALA APT    MOSUNNY   76  59  55 CALM      29.78F
FLORALA*       NOT AVBL

$$

FLZ001>006-232200-
WESTERN FLORIDA PANHANDLE

CITY           SKY/WX    TMP DP  RH WIND       PRES   REMARKS
PENSACOLA      SUNNY     78  61  55 SE9       29.75F
NAS PENSACOLA  MOSUNNY   75  60  59 S10       29.76S
MILTON         MOSUNNY   79  58  48 E7        29.75F
WHTNG S FIELD  MOSUNNY   82  59  45 SE7       29.75F


CITY           SKY/WX    TMP DP  RH WIND       PRES   REMARKS
JAY*           NOT AVBL
DUKE FIELD     MOSUNNY   77  59  53 VRB5      29.76F
CRESTVIEW      SUNNY     78  60  53 VRB3      29.78F
VALPARAISO     MOSUNNY   76  61  61 SE8       29.75F
DESTIN         SUNNY     79  65  62 CALM      29.76F

$$

MSZ076-079-232200-
INTERIOR SOUTHEAST MISSISSIPPI

CITY           SKY/WX    TMP DP  RH WIND       PRES   REMARKS
LEAKESVILLE*   NOT AVBL
AGRICOLA*      NOT AVBL

$$

MARINE OBSERVATIONS

STATION/POSITION TIME  TEMP    WIND        PRES    WAVE
                       AIR SEA DIR/SP/G            HT/PER
                 (UTC) (F)     (DEG/KT/KT) (MB)    (FT/S)
PASCAGOULA       2048   66     170/  7/  8 1008.4F
PETIT BOIS ISLND 2048   67     170/  6/  7 1009.3F
GRAND BAY        1945   64     170/  8     1010.0F
KATRINA CUT      2030          210/  5     1008.5F
CEDAR POINT      2030   65     230/  6     1008.5F
E DAUPHIN ISLAND 2000   65     170/  4/  5 1008.2F
MIDDLE BAY LIGHT 2030   67     230/  4     1008.5S
USCG MOBILE BAY  2042   71 65  160/  4/  6 1009.0S
STATE DOCKS      2042   71 64              1008.3R
MEAHER PARK      2030   68     240/  6     1008.1S
WEEKS BAY        1945   75                   N/A
FORT MORGAN      2042   66     240/  5/  6   N/A
12 S ORANGE BCH  2050   67 71  210/  2/  2 1008.2F   2/ 5
PENSACOLA BAY    2048          180/  8/  9   N/A
67 S FORT MORGAN 2030   74      50/  4     1008.1F

$$

SELECTED LOCATIONS ACROSS THE REGION

CITY           SKY/WX    TMP DP  RH WIND       PRES   REMARKS
NEW ORLEANS    MOSUNNY   76  59  55 S9        29.76F
GULFPORT       SUNNY     72  61  68 S7        29.78F
PASCAGOULA AP  SUNNY     73  59  61 VRB6      29.77F
PASCAGOULA*    NOT AVBL
HATTIESBURG    SUNNY     80  58  46 S9        29.75F
LAUREL         SUNNY     79  57  47 S7        29.77F
MERIDIAN       MOSUNNY   78  60  53 SE8       29.76F
JACKSON        MOSUNNY   80  57  45 SE10      29.73F
MONTGOMERY     SUNNY     76  58  53 CALM      29.78F
TROY           PTSUNNY   77  58  51 SE6       29.79S
ASHFORD*       NOT AVBL
DOTHAN         SUNNY     77  60  55 NE9       29.80F
PANAMA CITY    PTSUNNY   78  60  53 N12       29.73F

$$




USA.gov is the U.S. government's official web portal to all federal, state and local government web resources and services.